Time,TemperatureF,DewpointF,PressureIn,WindDirection,WindDirectionDegrees,WindSpeedMPH,WindSpeedGustMPH,Humidity,HourlyPrecipIn,Conditions,Clouds,dailyrainin,SoftwareType,DateUTC
2013-08-20 00:00:00,70.9,68.1,30.08,NW,315,0.0,0.0,91,0.00,,,0.00,WUHU216HW,2013-08-20 04:00:00,
2013-08-20 00:01:00,70.9,68.1,30.08,NW,315,0.0,0.0,91,0.00,,,0.00,WUHU216HW,2013-08-20 04:01:00,
2013-08-20 00:06:00,70.9,68.1,30.08,NW,315,0.0,0.0,91,0.00,,,0.00,WUHU216HW,2013-08-20 04:06:00,
2013-08-20 00:30:00,70.9,68.1,30.08,NW,315,0.0,0.0,91,0.00,,,0.00,WUHU216HW,2013-08-20 04:30:00,
2013-08-20 00:35:00,70.9,68.1,30.08,NW,315,0.0,0.0,91,0.00,,,0.00,WUHU216HW,2013-08-20 04:35:00,
2013-08-20 01:00:00,71.1,68.3,30.08,WNW,293,0.0,0.0,91,0.00,,,0.00,WUHU216HW,2013-08-20 05:00:00,
2013-08-20 01:05:00,71.1,68.3,30.08,WNW,293,0.0,0.0,91,0.00,,,0.00,WUHU216HW,2013-08-20 05:05:00,
2013-08-20 01:30:00,70.9,68.1,30.07,ENE,68,0.0,0.0,91,0.00,,,0.00,WUHU216HW,2013-08-20 05:30:00,
2013-08-20 01:35:00,70.9,68.1,30.07,ENE,68,0.0,0.0,91,0.00,,,0.00,WUHU216HW,2013-08-20 05:35:00,
2013-08-20 02:00:00,70.7,68.0,30.07,NE,45,0.0,0.0,91,0.00,,,0.00,WUHU216HW,2013-08-20 06:00:00,
2013-08-20 02:05:00,70.7,68.0,30.07,NE,45,0.0,0.0,91,0.00,,,0.00,WUHU216HW,2013-08-20 06:05:00,
2013-08-20 02:30:00,70.6,67.8,30.06,North,0,0.0,0.0,91,0.00,,,0.00,WUHU216HW,2013-08-20 06:30:00,
2013-08-20 02:35:00,70.6,67.8,30.06,North,0,0.0,0.0,91,0.00,,,0.00,WUHU216HW,2013-08-20 06:35:00,
2013-08-20 03:00:00,70.4,67.6,30.06,North,0,0.0,0.0,91,0.00,,,0.00,WUHU216HW,2013-08-20 07:00:00,
2013-08-20 03:05:00,70.4,67.6,30.06,North,0,0.0,0.0,91,0.00,,,0.00,WUHU216HW,2013-08-20 07:05:00,
2013-08-20 03:30:00,70.0,67.2,30.06,North,0,0.0,0.0,91,0.00,,,0.00,WUHU216HW,2013-08-20 07:30:00,
2013-08-20 03:35:00,70.0,67.2,30.06,North,0,0.0,0.0,91,0.00,,,0.00,WUHU216HW,2013-08-20 07:35:00,
2013-08-20 04:00:00,69.8,67.1,30.06,North,0,0.0,0.0,91,0.00,,,0.00,WUHU216HW,2013-08-20 08:00:00,
2013-08-20 04:05:00,69.8,67.1,30.06,North,0,0.0,0.0,91,0.00,,,0.00,WUHU216HW,2013-08-20 08:05:00,
2013-08-20 04:30:00,69.8,67.1,30.06,NNW,338,0.0,0.0,91,0.00,,,0.00,WUHU216HW,2013-08-20 08:30:00,
2013-08-20 04:35:00,69.8,67.1,30.06,NNW,338,0.0,0.0,91,0.00,,,0.00,WUHU216HW,2013-08-20 08:35:00,
2013-08-20 05:00:00,69.5,66.7,30.06,NNE,23,0.0,0.0,91,0.00,,,0.00,WUHU216HW,2013-08-20 09:00:00,
2013-08-20 05:05:00,69.5,66.7,30.06,NNE,23,0.0,0.0,91,0.00,,,0.00,WUHU216HW,2013-08-20 09:05:00,
2013-08-20 05:30:00,69.5,66.7,30.06,NNE,23,0.0,0.0,91,0.00,,,0.00,WUHU216HW,2013-08-20 09:30:00,
2013-08-20 05:35:00,69.5,66.7,30.06,NNE,23,0.0,0.0,91,0.00,,,0.00,WUHU216HW,2013-08-20 09:35:00,
2013-08-20 06:00:00,69.3,66.5,30.07,NW,315,0.0,0.0,91,0.00,,,0.00,WUHU216HW,2013-08-20 10:00:00,
2013-08-20 06:05:00,69.3,66.5,30.07,NW,315,0.0,0.0,91,0.00,,,0.00,WUHU216HW,2013-08-20 10:05:00,
2013-08-20 06:30:00,69.1,66.3,30.08,NNW,338,0.0,0.0,91,0.00,,,0.00,WUHU216HW,2013-08-20 10:30:00,
2013-08-20 06:35:00,69.1,66.3,30.08,NNW,338,0.0,0.0,91,0.00,,,0.00,WUHU216HW,2013-08-20 10:35:00,
2013-08-20 07:00:00,69.1,66.3,30.09,NNW,338,0.0,0.0,91,0.00,,,0.00,WUHU216HW,2013-08-20 11:00:00,
2013-08-20 07:05:00,69.1,66.3,30.09,NNW,338,0.0,0.0,91,0.00,,,0.00,WUHU216HW,2013-08-20 11:05:00,
2013-08-20 07:30:00,69.1,66.3,30.09,NNW,338,0.0,0.0,91,0.00,,,0.00,WUHU216HW,2013-08-20 11:30:00,
2013-08-20 07:35:00,69.1,66.3,30.09,NNW,338,0.0,0.0,91,0.00,,,0.00,WUHU216HW,2013-08-20 11:35:00,
2013-08-20 08:00:00,69.5,66.7,30.09,NNW,338,0.0,0.0,91,0.00,,,0.00,WUHU216HW,2013-08-20 12:00:00,
2013-08-20 08:05:00,69.5,66.7,30.09,NNW,338,0.0,0.0,91,0.00,,,0.00,WUHU216HW,2013-08-20 12:05:00,
2013-08-20 08:30:00,70.0,67.2,30.10,SSW,203,0.0,0.0,91,0.00,,,0.00,WUHU216HW,2013-08-20 12:30:00,
2013-08-20 08:35:00,70.0,67.2,30.10,SSW,203,0.0,0.0,91,0.00,,,0.00,WUHU216HW,2013-08-20 12:35:00,
2013-08-20 09:00:00,71.1,68.3,30.11,SSE,158,0.0,0.0,91,0.00,,,0.00,WUHU216HW,2013-08-20 13:00:00,
2013-08-20 09:05:00,71.1,68.3,30.11,SSE,158,0.0,0.0,91,0.00,,,0.00,WUHU216HW,2013-08-20 13:05:00,
2013-08-20 09:30:00,72.0,68.9,30.11,NE,45,0.0,0.0,90,0.00,,,0.00,WUHU216HW,2013-08-20 13:30:00,
2013-08-20 09:35:00,72.0,68.9,30.11,NE,45,0.0,0.0,90,0.00,,,0.00,WUHU216HW,2013-08-20 13:35:00,
2013-08-20 10:00:00,72.9,69.5,30.11,East,90,0.0,0.0,89,0.00,,,0.00,WUHU216HW,2013-08-20 14:00:00,
2013-08-20 10:05:00,72.9,69.5,30.11,East,90,0.0,0.0,89,0.00,,,0.00,WUHU216HW,2013-08-20 14:05:00,
2013-08-20 10:30:00,73.8,70.4,30.12,NW,315,0.0,0.0,89,0.00,,,0.00,WUHU216HW,2013-08-20 14:30:00,
2013-08-20 10:35:00,73.8,70.4,30.12,NW,315,0.0,0.0,89,0.00,,,0.00,WUHU216HW,2013-08-20 14:35:00,
2013-08-20 11:00:00,74.7,70.9,30.13,East,90,0.9,0.9,88,0.00,,,0.00,WUHU216HW,2013-08-20 15:00:00,
2013-08-20 11:05:00,74.7,70.9,30.13,East,90,0.9,0.9,88,0.00,,,0.00,WUHU216HW,2013-08-20 15:05:00,
2013-08-20 11:30:00,75.6,71.5,30.13,SE,135,0.2,0.2,87,0.00,,,0.00,WUHU216HW,2013-08-20 15:30:00,
2013-08-20 11:35:00,75.6,71.5,30.13,SE,135,0.2,0.2,87,0.00,,,0.00,WUHU216HW,2013-08-20 15:35:00,
2013-08-20 12:00:00,76.1,71.3,30.13,ESE,113,0.0,0.0,85,0.00,,,0.00,WUHU216HW,2013-08-20 16:00:00,
2013-08-20 12:05:00,76.1,71.3,30.13,ESE,113,0.0,0.0,85,0.00,,,0.00,WUHU216HW,2013-08-20 16:05:00,
2013-08-20 12:30:00,76.7,71.5,30.13,SW,225,0.0,0.0,84,0.00,,,0.00,WUHU216HW,2013-08-20 16:30:00,
2013-08-20 12:35:00,76.7,71.5,30.13,SW,225,0.0,0.0,84,0.00,,,0.00,WUHU216HW,2013-08-20 16:35:00,
2013-08-20 13:00:00,77.0,71.8,30.13,ENE,68,0.4,0.4,84,0.00,,,0.00,WUHU216HW,2013-08-20 17:00:00,
2013-08-20 13:05:00,77.0,71.8,30.13,ENE,68,0.4,0.4,84,0.00,,,0.00,WUHU216HW,2013-08-20 17:05:00,
2013-08-20 13:30:00,77.8,72.2,30.13,ESE,113,0.0,0.0,83,0.00,,,0.00,WUHU216HW,2013-08-20 17:30:00,
2013-08-20 13:35:00,77.8,72.2,30.13,ESE,113,0.0,0.0,83,0.00,,,0.00,WUHU216HW,2013-08-20 17:35:00,
2013-08-20 14:00:00,78.1,72.2,30.13,ENE,68,1.1,1.1,82,0.00,,,0.00,WUHU216HW,2013-08-20 18:00:00,
2013-08-20 14:05:00,78.1,72.2,30.13,ENE,68,1.1,1.1,82,0.00,,,0.00,WUHU216HW,2013-08-20 18:05:00,
2013-08-20 14:30:00,79.4,72.7,30.12,ENE,68,0.7,0.7,80,0.00,,,0.00,WUHU216HW,2013-08-20 18:30:00,
2013-08-20 14:35:00,79.4,72.7,30.12,ENE,68,0.7,0.7,80,0.00,,,0.00,WUHU216HW,2013-08-20 18:35:00,
2013-08-20 15:00:00,80.3,72.8,30.11,NE,45,0.0,0.0,78,0.00,,,0.00,WUHU216HW,2013-08-20 19:00:00,
2013-08-20 15:05:00,80.3,72.8,30.11,NE,45,0.0,0.0,78,0.00,,,0.00,WUHU216HW,2013-08-20 19:05:00,
2013-08-20 15:30:00,81.0,73.5,30.09,NW,315,0.2,0.2,78,0.00,,,0.00,WUHU216HW,2013-08-20 19:30:00,
2013-08-20 15:35:00,81.0,73.5,30.09,NW,315,0.2,0.2,78,0.00,,,0.00,WUHU216HW,2013-08-20 19:35:00,
2013-08-20 16:00:00,81.2,73.4,30.08,NE,45,0.4,0.4,77,0.00,,,0.00,WUHU216HW,2013-08-20 20:00:00,
2013-08-20 16:05:00,81.2,73.4,30.08,NE,45,0.4,0.4,77,0.00,,,0.00,WUHU216HW,2013-08-20 20:05:00,
2013-08-20 16:30:00,81.4,73.1,30.08,East,90,0.7,0.7,76,0.00,,,0.00,WUHU216HW,2013-08-20 20:30:00,
2013-08-20 16:35:00,81.4,73.1,30.08,East,90,0.7,0.7,76,0.00,,,0.00,WUHU216HW,2013-08-20 20:35:00,
2013-08-20 17:00:00,81.4,72.7,30.08,NNE,23,1.1,1.1,75,0.00,,,0.00,WUHU216HW,2013-08-20 21:00:00,
2013-08-20 17:05:00,81.4,72.7,30.08,NNE,23,1.1,1.1,75,0.00,,,0.00,WUHU216HW,2013-08-20 21:05:00,
2013-08-20 17:30:00,81.2,72.6,30.08,East,90,0.4,0.4,75,0.00,,,0.00,WUHU216HW,2013-08-20 21:30:00,
2013-08-20 17:35:00,81.2,72.6,30.08,East,90,0.4,0.4,75,0.00,,,0.00,WUHU216HW,2013-08-20 21:35:00,
2013-08-20 18:00:00,80.6,72.4,30.08,East,90,0.0,0.0,76,0.00,,,0.00,WUHU216HW,2013-08-20 22:00:00,
2013-08-20 18:05:00,80.6,72.4,30.08,East,90,0.0,0.0,76,0.00,,,0.00,WUHU216HW,2013-08-20 22:05:00,
2013-08-20 18:30:00,80.5,72.6,30.08,ESE,113,0.0,0.0,77,0.00,,,0.00,WUHU216HW,2013-08-20 22:30:00,
2013-08-20 18:35:00,80.5,72.6,30.08,ESE,113,0.0,0.0,77,0.00,,,0.00,WUHU216HW,2013-08-20 22:35:00,
2013-08-20 19:00:00,79.7,72.3,30.08,East,90,0.0,0.0,78,0.00,,,0.00,WUHU216HW,2013-08-20 23:00:00,
2013-08-20 19:05:00,79.7,72.3,30.08,East,90,0.0,0.0,78,0.00,,,0.00,WUHU216HW,2013-08-20 23:05:00,
2013-08-20 19:30:00,79.2,72.2,30.08,ESE,113,0.0,0.0,79,0.00,,,0.00,WUHU216HW,2013-08-20 23:30:00,
2013-08-20 19:35:00,79.2,72.2,30.08,ESE,113,0.0,0.0,79,0.00,,,0.00,WUHU216HW,2013-08-20 23:35:00,
2013-08-20 20:00:00,78.8,72.5,30.09,North,0,0.0,0.0,81,0.00,,,0.00,WUHU216HW,2013-08-21 00:00:00,
2013-08-20 20:05:00,78.8,72.5,30.09,North,0,0.0,0.0,81,0.00,,,0.00,WUHU216HW,2013-08-21 00:05:00,
2013-08-20 20:30:00,77.8,72.2,30.10,NNW,338,0.0,0.0,83,0.00,,,0.00,WUHU216HW,2013-08-21 00:30:00,
2013-08-20 20:35:00,77.8,72.2,30.10,NNW,338,0.0,0.0,83,0.00,,,0.00,WUHU216HW,2013-08-21 00:35:00,
2013-08-20 21:00:00,77.4,71.8,30.10,WNW,293,0.0,0.0,83,0.00,,,0.00,WUHU216HW,2013-08-21 01:00:00,
2013-08-20 21:05:00,77.4,71.8,30.10,WNW,293,0.0,0.0,83,0.00,,,0.00,WUHU216HW,2013-08-21 01:05:00,
2013-08-20 21:30:00,77.2,72.0,30.11,WNW,293,0.0,0.0,84,0.00,,,0.00,WUHU216HW,2013-08-21 01:30:00,
2013-08-20 21:35:00,77.2,72.0,30.11,WNW,293,0.0,0.0,84,0.00,,,0.00,WUHU216HW,2013-08-21 01:35:00,
2013-08-20 22:00:00,76.9,72.0,30.11,SE,135,0.0,0.0,85,0.00,,,0.00,WUHU216HW,2013-08-21 02:00:00,
2013-08-20 22:05:00,76.9,72.0,30.11,SE,135,0.0,0.0,85,0.00,,,0.00,WUHU216HW,2013-08-21 02:05:00,
2013-08-20 22:30:00,76.5,71.6,30.11,WSW,248,0.0,0.0,85,0.00,,,0.00,WUHU216HW,2013-08-21 02:30:00,
2013-08-20 22:35:00,76.5,71.6,30.11,WSW,248,0.0,0.0,85,0.00,,,0.00,WUHU216HW,2013-08-21 02:35:00,
2013-08-20 23:00:00,76.3,71.5,30.12,WSW,248,0.0,0.0,85,0.00,,,0.00,WUHU216HW,2013-08-21 03:00:00,
2013-08-20 23:05:00,76.3,71.5,30.12,WSW,248,0.0,0.0,85,0.00,,,0.00,WUHU216HW,2013-08-21 03:05:00,
2013-08-20 23:30:00,76.1,71.6,30.12,SW,225,0.0,0.0,86,0.00,,,0.00,WUHU216HW,2013-08-21 03:30:00,
2013-08-20 23:35:00,76.1,71.6,30.12,SW,225,0.0,0.0,86,0.00,,,0.00,WUHU216HW,2013-08-21 03:35:00,